Location: Azul
(36.7830°S, 59.8500°W)
Time: 17:39:36
(UTC-03:00)

ISS - Pass Details

Date: 14 June 2019
Orbit: 407 x 419 km, 51.6° (Epoch: 26 June)

Event Time Altitude Azimuth Distance (km) Brightness Sun altitude
Exits shadow 06:21:45 52° 1° (N) 525 -3.3 -20.9°
Drops below altitude 10° 06:24:33 10° 37° (NE) 1,489 -0.3 -20.4°
Sets 06:26:38 0° 40° (NE) 2,342 0.9 -20.0°
